Location: Unspecified
(43.4354°N, 0.0000°E)
Time: 13:45:59
(UTC+00:00)

Courier 1B - Pass Details

Date: 27 June 2019
Orbit: 963 x 1209 km, 28.3° (Epoch: 22 July)

Event Time Altitude Azimuth Distance (km) Brightness Sun altitude
Rises 17:45:43 0° 239° (WSW) 3,728 11.2 18.8°
Reaches altitude 10° 17:48:55 10° 225° (SW) 2,815 10.4 18.3°
Maximum altitude 17:54:05 23° 176° (S) 2,093 9.2 17.4°
Drops below altitude 10° 17:59:28 10° 128° (SE) 2,955 9.5 16.4°
Sets 18:02:56 0° 114° (ESE) 3,959 10.0 15.8°
